Latest Coastal Weather Observations for Cocos Island

IDW60701

Issued at 12:15 am WST Saturday 25 October 2014 (issued every 10 minutes, with the page automatically refreshed every 10 minutes)

About coastal observations | Map of coastal stations | Coastal observations for WA | Marine services | Other Formats
Station Details ID: 200284 Name: COCOS ISLAND AIRPORT Lat: -12.19 Lon: 96.83 Height: 3.0 m
Data from the previous 72 hours. | See also: Recent months at Cocos Island
Date/Time
WST
Temp

°C
Wind Pressure Rain
since 9am
mm
Weather Cloud Vis
km
Sea
Height
m
Swell
Dir
 
Speed
knots
Gust
knots
hPa Trend Height
m
Period
s
Dir
25/12:00am 26.4 E 13 18 1014.5 - 0.0 - Partly cloudy 10 - - - -
 
Date/Time
WST
Temp

°C
Wind Pressure Rain
since 9am
mm
Weather Cloud Vis
km
Sea
Height
m
Swell
Dir
 
Speed
knots
Gust
knots
hPa Trend Height
m
Period
s
Dir
24/11:30pm 26.5 E 12 17 1014.6 - 0.0 - Partly cloudy 10 - - - -
24/11:00pm 26.5 E 12 16 1014.3 - 0.0 - Mostly clear 10 - - - -
24/10:30pm 26.6 E 12 18 1014.2 - 0.0 - Partly cloudy 10 - - - -
24/10:00pm 26.7 E 14 17 1013.8 - 0.0 - Partly cloudy 10 - - - -
24/09:30pm 26.8 E 13 17 1013.5 - 0.0 - Partly cloudy 10 - - - -
24/09:00pm 26.9 E 15 20 1013.3 - 0.0 - Partly cloudy 10 - - - -
24/08:30pm 26.9 E 15 18 1013.0 - 0.0 - Partly cloudy 10 - - - -
24/08:00pm 26.9 E 15 17 1012.5 - 0.0 - Mostly clear 10 - - - -
24/07:30pm 27.0 E 16 19 1012.3 - 0.0 - Partly cloudy 10 - - - -
24/07:00pm 27.0 E 16 19 1012.2 - 0.0 - Partly cloudy 10 - - - -
24/06:30pm 27.2 E 17 20 1011.8 - 0.0 - Partly cloudy 10 - - - -
24/06:00pm 26.8 E 16 20 1011.4 - 0.0 Showers Partly cloudy 8 - - - -
24/05:30pm 27.5 E 15 19 1011.4 - 0.0 - Partly cloudy 10 - - - -
24/05:00pm 27.6 E 15 19 1011.3 - 0.0 Fine Partly cloudy 20 - - - -
24/04:30pm 28.2 E 16 20 1011.6 - 0.0 - Partly cloudy 10 - - - -
24/04:00pm 28.1 E 16 21 1011.7 - 0.0 - Mostly clear 10 - - - -
24/03:30pm 28.1 E 15 19 1012.0 - 0.0 - Mostly clear 10 - - - -
24/03:00pm 28.6 E 17 20 1012.1 - 0.0 - Mostly clear 10 - - - -
24/02:30pm 28.5 E 16 20 1012.3 - 0.0 - Partly cloudy 10 - - - -
24/02:00pm 28.1 E 15 19 1012.7 - 0.0 Fine Mostly clear 15 - - - -
24/01:30pm 28.3 E 17 21 1013.3 - 0.0 - Mostly clear 10 - - - -
24/01:00pm 28.1 E 15 19 1013.7 - 0.0 - Mostly clear 10 - - - -
24/12:30pm 28.3 E 15 18 1014.0 - 0.0 - Mostly clear 10 - - - -
24/12:00pm 27.9 E 15 18 1014.1 - 0.0 - Mostly clear 10 - - - -
24/11:30am 27.6 E 15 19 1014.0 - 0.0 - Mostly clear 10 - - - -
24/11:00am 27.7 E 15 17 1014.1 - 0.0 Haze Mostly clear 12 - - - -
24/10:30am 27.4 E 13 15 1014.1 - 0.0 - Mostly clear 10 - - - -
24/10:00am 27.0 E 14 16 1014.2 - 0.0 - Mostly clear 10 - - - -
24/09:30am 26.9 E 15 16 1014.2 - 0.0 - Mostly clear 10 - - - -
24/09:00am 26.6 E 14 17 1013.9 - 0.0 - Mostly clear 10 - - - -
24/08:30am 26.4 E 16 18 1013.7 - 0.0 - Mostly clear 10 - - - -
24/08:00am 26.2 E 14 17 1013.4 - 0.0 Fine Mostly clear 15 - - - -
24/07:30am 26.0 E 14 17 1013.4 - 0.0 - Mostly clear 10 - - - -
24/07:00am 25.9 E 13 16 1013.2 - 0.0 - Mostly clear 10 - - - -
24/06:30am 25.9 E 14 17 1012.8 - 0.0 - Partly cloudy 10 - - - -
24/06:00am 25.8 E 12 16 1012.7 - 0.0 - - 10 - - - -
24/05:30am 25.8 E 13 16 1012.6 - 0.0 - Partly cloudy 10 - - - -
24/05:00am 25.7 E 11 13 1012.4 - 0.0 - - 10 - - - -
24/04:30am 25.6 E 10 13 1012.5 - 0.0 - Partly cloudy 10 - - - -
24/04:00am 25.7 E 11 15 1012.5 - 0.0 - - 10 - - - -
24/03:30am 25.7 E 11 15 1012.7 - 0.0 - Partly cloudy 10 - - - -
24/03:00am 25.7 E 10 14 1013.0 - 0.0 - Partly cloudy 10 - - - -
24/02:30am 25.8 ESE 10 15 1013.4 - 0.0 - Partly cloudy 10 - - - -
24/02:00am 25.8 ESE 11 14 1013.7 - 0.0 - Mostly clear 10 - - - -
24/01:30am 25.9 ESE 11 14 1013.9 - 0.0 - Partly cloudy 10 - - - -
24/01:00am 26.1 ESE 12 15 1014.2 - 0.0 - - 10 - - - -
24/12:30am 26.2 ESE 13 16 1014.5 - 0.0 - Partly cloudy 10 - - - -
24/12:00am 26.2 ESE 12 16 1014.8 - 0.0 - - 10 - - - -
 
Date/Time
WST
Temp

°C
Wind Pressure Rain
since 9am
mm
Weather Cloud Vis
km
Sea
Height
m
Swell
Dir
 
Speed
knots
Gust
knots
hPa Trend Height
m
Period
s
Dir
23/11:30pm 26.4 ESE 12 16 1014.9 - 0.0 - Partly cloudy 10 - - - -
23/11:00pm 26.3 ESE 11 15 1014.7 - 0.0 - Mostly clear 10 - - - -
23/10:30pm 26.3 ESE 11 15 1014.4 - 0.0 - - 10 - - - -
23/10:00pm 26.3 ESE 12 16 1014.2 - 0.0 - - 10 - - - -
23/09:30pm 26.5 ESE 12 16 1014.1 - 0.0 - - 10 - - - -
23/09:00pm 26.5 ESE 12 17 1013.8 - 0.0 - Partly cloudy 10 - - - -
23/08:30pm 26.7 ESE 13 17 1013.7 - 0.0 - Partly cloudy 10 - - - -
23/08:00pm 26.6 ESE 13 17 1013.5 - 0.0 - - 10 - - - -
23/07:30pm 26.6 ESE 13 17 1013.3 - 0.0 - Partly cloudy 10 - - - -
23/07:00pm 26.8 ESE 15 18 1012.9 - 0.0 - Partly cloudy 10 - - - -
23/06:30pm 27.2 ESE 14 17 1012.6 - 0.0 - Mostly clear 10 - - - -
23/06:00pm 27.4 SE 14 18 1012.5 - 0.0 - Mostly clear 10 - - - -
23/05:30pm 27.5 ESE 15 19 1012.4 - 0.0 - Mostly clear 10 - - - -
23/05:00pm 27.7 ESE 15 19 1012.5 - 0.0 Fine Mostly clear 20 - - - -
23/04:30pm 28.1 ESE 14 19 1012.8 - 0.0 - Mostly clear 10 - - - -
23/04:00pm 28.3 ESE 15 21 1013.0 - 0.0 - Mostly clear 10 - - - -
23/03:30pm 28.4 SE 15 20 1013.2 - 0.0 - Mostly clear 10 - - - -
23/03:00pm 28.1 ESE 15 19 1013.4 - 0.0 - Mostly clear 10 - - - -
23/02:30pm 27.8 SE 16 21 1013.8 - 0.0 - Mostly clear 10 - - - -
23/02:00pm 27.7 SE 16 20 1014.3 - 0.0 Fine Mostly clear 15 - - - -
23/01:30pm 28.4 ESE 16 22 1014.7 - 0.0 - Mostly clear 10 - - - -
23/01:00pm 27.8 ESE 17 22 1015.0 - 0.0 - Mostly clear 10 - - - -
23/12:30pm 28.3 ESE 17 22 1015.1 - 0.0 - Mostly clear 10 - - - -
23/12:00pm 28.0 ESE 16 22 1015.4 - 0.0 - Mostly clear 10 - - - -
23/11:30am 27.6 ESE 18 22 1015.6 - 0.0 - Mostly clear 10 - - - -
23/11:00am 27.2 ESE 17 23 1015.9 - 0.6 Fine Mostly clear 15 - - - -
23/10:30am 27.2 ESE 15 20 1016.0 - 0.6 - Mostly clear 10 - - - -
23/10:00am 26.7 SE 15 20 1015.8 - 0.6 - Mostly clear 10 - - - -
23/09:30am 25.5 ESE 17 22 1015.6 - 0.6 Showers Partly cloudy 10 - - - -
23/09:00am 26.1 ESE 15 21 1015.4 - 0.4 - Partly cloudy 10 - - - -
23/08:27am 25.8 SE 15 20 1015.0 - 0.4 - Mostly clear 10 - - - -
23/08:00am 25.8 SE 15 21 1014.7 - 0.2 Showers Mostly cloudy 6 - - - -
23/07:30am 25.8 SE 14 19 1014.2 - 0.2 - Mostly clear 10 - - - -
23/07:00am 25.8 SE 14 19 1014.0 - 0.2 - Mostly clear 10 - - - -
23/06:30am 25.8 SE 15 20 1013.9 - 0.2 - Partly cloudy 10 - - - -
23/06:00am 25.9 SE 15 18 1013.9 - 0.2 - Partly cloudy 10 - - - -
23/05:30am 25.8 SE 14 18 1013.9 - 0.2 - Partly cloudy 10 - - - -
23/05:00am 25.8 ESE 15 18 1013.9 - 0.2 - Partly cloudy 10 - - - -
23/04:30am 25.9 SE 14 18 1014.0 - 0.2 - Partly cloudy 10 - - - -
23/04:00am 25.9 SE 15 19 1014.2 - 0.2 - Partly cloudy 10 - - - -
23/03:30am 25.9 SE 14 18 1014.5 - 0.2 - Partly cloudy 10 - - - -
23/03:00am 25.9 SE 14 18 1014.9 - 0.2 - Partly cloudy 10 - - - -
23/02:45am 25.7 SE 14 17 1015.1 - 0.2 - Partly cloudy 10 - - - -
23/02:30am 25.2 SE 15 21 1015.2 - 0.2 - Partly cloudy 5 - - - -
23/02:25am 25.4 SE 15 21 1015.2 - 0.0 - Partly cloudy 6 - - - -
23/02:00am 25.9 SE 15 18 1015.3 - 0.0 - Cloudy 10 - - - -
23/01:30am 26.1 SE 15 19 1015.5 - 0.0 - Partly cloudy 10 - - - -
23/01:00am 26.1 SE 15 20 1016.0 - 0.0 - Partly cloudy 10 - - - -
23/12:30am 26.1 SE 15 18 1016.2 - 0.0 - Partly cloudy 10 - - - -
23/12:00am 26.1 SE 14 18 1016.3 - 0.0 - Partly cloudy 10 - - - -
 
Date/Time
WST
Temp

°C
Wind Pressure Rain
since 9am
mm
Weather Cloud Vis
km
Sea
Height
m
Swell
Dir
 
Speed
knots
Gust
knots
hPa Trend Height
m
Period
s
Dir
22/11:30pm 26.3 SE 14 18 1016.4 - 0.0 - Partly cloudy 10 - - - -
22/11:00pm 26.3 SE 14 19 1016.4 - 0.0 - - 10 - - - -
22/10:30pm 26.4 SE 15 21 1016.1 - 0.0 - Partly cloudy 10 - - - -
22/10:00pm 26.4 SE 15 18 1016.0 - 0.0 - Partly cloudy 10 - - - -
22/09:30pm 26.5 SE 15 20 1015.9 - 0.0 - Partly cloudy 10 - - - -
22/09:00pm 26.5 SE 16 19 1015.6 - 0.0 - Partly cloudy 10 - - - -
22/08:30pm 26.7 SE 16 20 1015.3 - 0.0 - Partly cloudy 10 - - - -
22/08:00pm 26.7 SE 16 21 1014.9 - 0.0 - Mostly cloudy 10 - - - -
22/07:30pm 26.8 ESE 15 20 1014.7 - 0.0 - Partly cloudy 10 - - - -
22/07:00pm 26.9 ESE 15 20 1014.5 - 0.0 - Partly cloudy 10 - - - -
22/06:30pm 27.0 ESE 15 20 1014.3 - 0.0 - Partly cloudy 10 - - - -
22/06:00pm 27.3 ESE 16 20 1014.0 - 0.0 - Mostly clear 10 - - - -
22/05:30pm 27.5 ESE 16 20 1013.8 - 0.0 - Partly cloudy 10 - - - -
22/05:00pm 27.7 ESE 16 20 1013.9 - 0.0 Fine Mostly clear 20 - - - -
22/04:30pm 28.1 ESE 15 19 1014.1 - 0.0 - Mostly clear 10 - - - -
22/04:00pm 28.2 ESE 15 19 1014.2 - 0.0 - Mostly clear 10 - - - -
22/03:30pm 28.1 ESE 15 20 1014.3 - 0.0 - Partly cloudy 10 - - - -
22/03:00pm 28.6 ESE 17 22 1014.4 - 0.0 - Mostly clear 10 - - - -
22/02:30pm 28.3 ESE 17 22 1014.7 - 0.0 - Mostly clear 10 - - - -
22/02:00pm 28.2 ESE 17 21 1015.0 - 0.0 Fine Partly cloudy 18 - - - -
22/01:30pm 28.7 ESE 16 19 1015.5 - 0.0 - Partly cloudy 10 - - - -
22/01:00pm 28.5 ESE 17 23 1015.8 - 0.0 - Partly cloudy 10 - - - -
22/12:30pm 28.3 ESE 16 21 1016.1 - 0.0 - Mostly clear 10 - - - -
22/12:00pm 28.5 ESE 16 21 1016.2 - 0.0 - Mostly clear 10 - - - -
22/11:30am 28.0 ESE 14 19 1016.6 - 0.0 - Mostly clear 10 - - - -
22/11:00am 27.3 ESE 15 21 1016.5 - 0.0 Fine Mostly cloudy 17 - - - -
22/10:30am 27.4 ESE 15 20 1016.4 - 0.0 - Mostly clear 10 - - - -
22/10:00am 27.5 ESE 15 19 1016.2 - 0.0 - Partly cloudy 10 - - - -
22/09:30am 26.6 ESE 14 18 1016.2 - 0.0 - Partly cloudy 10 - - - -
22/09:00am 26.4 ESE 14 17 1015.8 - 0.0 - Partly cloudy 10 - - - -
22/08:30am 26.3 ESE 13 19 1015.3 - 0.0 - Partly cloudy 10 - - - -
22/08:00am 26.3 ESE 15 20 1014.5 - 0.0 Haze Mostly cloudy 15 - - - -
22/07:30am 26.1 ESE 16 20 1014.0 - 0.0 - Partly cloudy 10 - - - -
22/07:00am 26.0 ESE 16 21 1013.8 - 0.0 - Partly cloudy 10 - - - -
22/06:30am 25.9 ESE 15 21 1013.5 - 0.0 - Partly cloudy 10 - - - -
22/06:00am 26.0 ESE 13 17 1013.3 - 0.0 - Partly cloudy 10 - - - -
22/05:30am 26.0 ESE 15 19 1013.2 - 0.0 - Partly cloudy 10 - - - -
22/05:00am 26.0 ESE 13 21 1013.2 - 0.0 - Partly cloudy 10 - - - -
22/04:30am 26.0 ESE 13 17 1013.6 - 0.0 - Partly cloudy 10 - - - -
22/04:00am 26.1 ESE 15 19 1013.9 - 0.0 - Partly cloudy 10 - - - -
22/03:30am 26.1 ESE 13 18 1014.2 - 0.0 - Partly cloudy 10 - - - -
22/03:00am 26.1 ESE 15 19 1014.8 - 0.0 - - 10 - - - -
22/02:30am 26.1 ESE 13 16 1015.3 - 0.0 - - 10 - - - -
22/02:00am 26.2 ESE 13 16 1015.8 - 0.0 - Partly cloudy 10 - - - -

Other Formats:

Comma delimited format used in spreadsheet applications
http://www.bom.gov.au/fwo/IDW60701/IDW60701.96996.axf

JavaScript Object Notation format (JSON) in row-major order
http://www.bom.gov.au/fwo/IDW60701/IDW60701.96996.json